WX2DX-2 Weather Reports


Display with metric or nautical units.
time (UTC)temp
F
wind
direction
speed
MPH
gust
MPH
rain 1hr
in
rain 24hr
in
rain mn
in
humidity
%
barometer
mb
20260902023111 77 29 1.0 3.0 0.00 0.02 0.02 87 1016.1
20260902021615 78 308 1.0 2.0 0.00 0.02 0.02 85 1016.0
20260902020100 79 340 3.0 8.0 0.00 0.02 0.02 82 1015.5
20260902014557 80 326 5.0 13.0 0.00 0.02 0.02 80 1015.4
20260902013056 81 269 2.0 7.0 0.00 0.02 0.02 78 1015.7
20260902011556 81 262 1.0 3.0 0.00 0.02 0.02 77 1016.1
20260902010101 82 266 2.0 9.0 0.00 0.02 0.02 76 1015.7
20260902004555 82 234 4.0 10.0 0.00 0.02 0.02 76 1015.7
20260902003054 82 341 1.0 11.0 0.00 0.02 0.02 77 1015.6
20260902001554 82 264 6.0 11.0 0.00 0.02 0.02 77 1014.7
20260902000058 82 242 2.0 9.0 0.00 0.02 0.02 77 1014.6
20260901234610 82 272 3.0 10.0 0.00 0.02 0.02 79 1014.5
20260901233053 82 266 2.0 7.0 0.00 0.02 0.02 79 1014.9
20260901231553 82 281 3.0 7.0 0.00 0.02 0.02 78 1014.4
20260901230133 83 254 1.0 6.0 0.00 0.02 0.02 76 1014.6
20260901224551 84 278 3.0 7.0 0.00 0.02 0.02 74 1014.6
20260901223108 86 265 2.0 9.0 0.00 0.02 0.02 74 1014.5
20260901221549 86 257 2.0 8.0 0.00 0.02 0.02 72 1014.7
20260901220058 87 261 2.0 9.0 0.00 0.02 0.02 71 1014.7
20260901214548 87 263 4.0 15.0 0.00 0.02 0.02 70 1014.6
20260901213049 87 286 3.0 9.0 0.00 0.02 0.02 71 1014.5
20260901211552 87 296 3.0 6.0 0.00 0.02 0.02 71 1014.6
20260901210048 87 248 3.0 9.0 0.00 0.02 0.02 70 1014.8
20260901204546 87 232 5.0 11.0 0.00 0.02 0.02 72 1014.8
20260901203044 87 297 5.0 10.0 0.00 0.02 0.02 72 1014.9
20260901201541 86 203 2.0 15.0 0.00 0.02 0.02 72 1014.8
20260901200053 86 268 6.0 14.0 0.00 0.02 0.02 71 1014.8
20260901194558 87 270 4.0 10.0 0.00 0.02 0.02 69 1014.8
20260901193039 88 230 3.0 14.0 0.00 0.02 0.02 70 1015.0
20260901191538 88 242 8.0 14.0 0.00 0.02 0.02 68 1014.9
20260901190036 88 170 5.0 12.0 0.00 0.02 0.02 71 1015.2
20260901184535 87 269 5.0 13.0 0.00 0.02 0.02 69 1015.3
20260901183041 87 339 6.0 16.0 0.00 0.02 0.02 69 1015.4
20260901181540 87 268 1.0 10.0 0.00 0.02 0.02 68 1015.3
20260901180033 87 263 4.0 14.0 0.00 0.02 0.02 71 1015.5
20260901174531 88 277 2.0 12.0 0.00 0.02 0.02 70 1015.5
20260901173027 88 258 2.0 10.0 0.00 0.02 0.02 73 1015.3
20260901171524 87 284 7.0 13.0 0.00 0.02 0.02 70 1015.6
20260901170021 87 259 7.0 13.0 0.00 0.02 0.02 69 1015.6
20260901164519 86 292 6.0 15.0 0.00 0.02 0.02 72 1015.5
20260901163017 86 252 7.0 15.0 0.00 0.02 0.02 72 1015.6
20260901161515 85 296 5.0 11.0 0.00 0.02 0.02 73 1015.6
20260901160014 85 259 6.0 11.0 0.00 0.02 0.02 76 1015.7
20260901154509 84 227 5.0 13.0 0.00 0.02 0.02 75 1016.0
20260901153038 84 322 4.0 10.0 0.00 0.02 0.02 78 1016.1
20260901151529 82 213 6.0 12.0 0.00 0.02 0.02 81 1016.3
20260901150025 80 246 2.0 9.0 0.00 0.02 0.02 84 1016.3
20260901144530 79 231 5.0 10.0 0.00 0.02 0.02 84 1016.6
20260901143017 78 232 4.0 7.0 0.00 0.02 0.02 87 1016.4
20260901141514 76 227 3.0 5.0 0.00 0.02 0.02 90 1016.5
20260901140012 75 227 2.0 4.0 0.00 0.02 0.02 92 1016.4
20260901134506 74 224 3.0 7.0 0.00 0.05 0.02 94 1016.6
20260901133003 73 261 2.0 4.0 0.00 0.05 0.02 96 1016.6
20260901131603 71 252 2.0 4.0 0.00 0.05 0.02 96 1016.9
20260901130055 71 222 1.0 4.0 0.00 0.05 0.02 97 1017.0
20260901124556 70 251 1.0 4.0 0.00 0.17 0.02 97 1017.3
20260901123048 70 268 2.0 4.0 0.00 0.17 0.02 97 1017.4
20260901121558 70 254 2.0 3.0 0.00 0.17 0.02 96 1017.5
20260901120046 70 271 0.0 2.0 0.00 0.17 0.02 97 1017.4
20260901114552 69 220 0.0 2.0 0.00 0.18 0.02 97 1017.3
20260901113043 69 231 0.0 2.0 0.00 0.18 0.02 97 1017.3
20260901111547 69 231 0.0 1.0 0.00 0.18 0.02 97 1017.3
20260901110045 68 212 0.0 2.0 0.00 0.18 0.02 96 1017.2
20260901104537 68 202 0.0 2.0 0.00 0.18 0.02 97 1017.4
20260901103036 69 280 0.0 1.0 0.01 0.18 0.02 96 1017.4
20260901101536 68 280 0.0 1.0 0.01 0.18 0.02 96 1017.3
20260901100036 68 280 0.0 2.0 0.02 0.18 0.02 96 1017.3
20260901094535 69 280 0.0 1.0 0.02 0.18 0.02 96 1017.1
20260901093036 69 280 0.0 3.0 0.01 0.17 0.01 96 1017.3
20260901091551 69 195 2.0 5.0 0.01 0.17 0.01 96 1017.4
20260901090031 69 247 0.0 2.0 0.00 0.16 0.00 96 1017.4
20260901084533 69 223 1.0 3.0 0.00 0.16 0.00 97 1017.3
20260901083029 68 253 0.0 2.0 0.00 0.16 0.00 96 1017.4
20260901081527 67 253 0.0 2.0 0.00 0.16 0.00 96 1017.5
20260901080027 68 253 0.0 2.0 0.00 0.16 0.00 96 1017.5
20260901074527 68 184 0.0 1.0 0.00 0.16 0.00 96 1017.6
20260901073025 68 251 0.0 0.0 0.00 0.16 0.00 96 1017.7
20260901071524 68 251 0.0 0.0 0.00 0.16 0.00 96 1017.7
20260901070027 69 251 0.0 0.0 0.00 0.16 0.00 96 1017.8
20260901064520 69 251 0.0 3.0 0.00 0.16 0.00 97 1017.9
20260901063018 68 233 2.0 4.0 0.00 0.16 0.00 96 1018.0
20260901061517 67 239 0.0 2.0 0.00 0.16 0.00 96 1018.1
20260901060016 67 174 0.0 1.0 0.00 0.16 0.00 96 1018.1
20260901054514 67 165 0.0 2.0 0.00 0.16 0.00 96 1018.2
20260901053014 67 165 0.0 0.0 0.00 0.16 0.00 95 1018.2
20260901051511 67 165 0.0 1.0 0.00 0.16 0.00 95 1018.2
20260901050010 67 165 0.0 0.0 0.00 0.16 0.00 95 1018.2
20260901044509 68 165 0.0 1.0 0.00 0.16 0.00 95 1018.2
20260901043007 68 165 0.0 0.0 0.00 0.16 0.00 95 1018.3
20260901041505 68 165 0.0 0.0 0.00 0.16 0.00 95 1018.1
20260901040105 69 165 0.0 1.0 0.00 0.16 0.00 95 1018.2
20260901040003 69 165 0.0 1.0 0.00 0.16 0.00 95 1018.2
20260901034606 69 165 0.0 0.0 0.00 0.16 0.16 94 1018.2
20260901033107 70 165 0.0 0.0 0.00 0.16 0.16 94 1018.2
20260901031559 70 165 0.0 0.0 0.00 0.16 0.16 94 1018.3
20260901030059 71 165 0.0 1.0 0.00 0.16 0.16 94 1018.4
20260901024606 71 165 0.0 0.0 0.00 0.16 0.16 94 1018.6